Wind_Speed
27 27 29 28 29 31 33 34 35 37 38 40 41 41 43 43 43 44 43 42 43 43 42 43 42 41 42 40 38 37 39 39 40 36 32 31 30 30 29 29 30 32 32 27 26
27 29 31 33 34 36 37 37 38 39 40 42 44 45 46 47 46 46 46 45 45 46 45 45 45 44 42 43 40 37 39 40 41 39 34 32 32 29 29 29 29 29 31 25 23
31 32 34 35 37 39 39 39 39 40 41 42 44 46 48 49 50 53 52 51 50 50 50 49 49 50 49 46 45 43 41 44 43 42 37 35 32 30 27 28 30 28 28 26 21
32 32 33 35 36 37 39 40 42 45 46 47 48 49 50 51 53 52 51 50 48 48 48 48 48 50 51 50 48 49 49 45 43 45 41 38 34 34 27 27 29 29 29 26 20
36 37 39 40 41 42 42 44 46 47 49 49 50 51 49 47 43 42 37 36 36 38 37 37 37 37 39 42 42 43 48 46 47 45 47 41 38 35 30 31 29 29 29 25 22
39 41 42 42 43 44 45 46 47 48 49 48 46 43 33 32 33 34 37 39 39 38 38 38 39 41 43 43 44 45 43 43 43 47 49 47 43 39 34 33 31 28 28 26 21
43 43 42 42 43 46 49 49 48 47 45 39 33 35 34 34 34 36 35 35 37 39 39 38 37 39 38 39 40 42 42 43 44 44 46 47 45 46 38 34 33 30 29 28 22
41 44 46 46 48 48 47 45 41 33 30 34 34 32 31 31 34 35 35 36 38 40 41 43 43 40 38 39 39 38 39 43 45 46 47 45 45 51 42 39 34 31 30 29 28
44 48 49 48 45 43 34 27 26 27 26 25 26 28 31 32 34 38 39 39 41 43 44 46 44 43 39 38 37 38 38 40 43 41 45 44 42 48 46 43 38 37 33 30 28
49 50 50 45 33 27 28 24 20 18 19 22 25 28 32 36 38 40 42 42 43 45 46 47 46 44 44 44 42 42 43 46 43 47 42 45 43 40 48 46 45 41 38 34 28
47 42 34 27 26 22 21 19 17 19 22 25 29 31 33 37 40 42 45 46 47 49 51 50 49 50 49 47 47 49 50 51 50 49 50 46 45 44 44 45 47 46 43 39 34
26 25 23 22 21 20 19 20 22 24 28 31 33 35 37 38 41 45 49 51 51 53 54 53 54 54 53 54 53 56 58 59 60 56 59 54 46 44 43 49 46 47 48 45 40
22 21 21 20 21 22 24 27 29 30 33 36 39 40 41 42 43 46 51 53 53 56 57 57 57 55 57 56 57 59 64 67 69 70 67 59 51 48 48 47 44 43 52 50 46
24 22 22 23 25 28 31 33 36 38 39 41 42 42 44 46 47 50 54 57 57 60 58 57 59 57 57 59 61 61 70 73 75 73 66 64 48 53 46 51 47 43 47 54 51
27 27 29 30 32 35 37 39 41 44 44 46 46 47 47 48 50 54 57 59 61 62 61 62 60 61 62 64 63 66 73 76 70 67 58 56 49 54 52 51 50 48 47 54 56
33 34 35 37 39 41 42 44 45 47 49 49 49 49 48 50 52 56 59 63 63 64 64 63 63 63 63 63 66 70 71 68 62 59 54 49 46 52 58 54 52 51 51 51 58
40 41 42 43 44 45 47 48 48 51 52 52 53 53 52 53 53 56 60 64 66 67 66 67 68 67 67 69 70 72 68 56 53 50 46 46 48 44 57 55 55 56 53 49 50
46 47 48 49 49 49 51 52 53 55 57 57 56 55 56 56 58 60 63 66 66 69 68 70 73 71 72 72 71 72 64 48 44 36 38 43 39 43 56 62 59 57 54 50 45
50 51 52 53 53 54 55 56 57 59 59 58 57 57 58 60 63 65 67 70 69 69 71 70 73 77 77 77 75 72 60 44 37 30 34 39 34 48 54 65 60 56 55 53 48
53 55 56 58 58 58 58 59 59 60 60 60 59 61 62 64 66 69 72 73 72 71 72 71 72 76 81 79 79 72 57 44 36 26 27 36 37 46 54 64 60 60 58 56 53
60 61 63 63 63 63 62 61 61 62 62 62 63 64 66 69 71 74 77 76 74 75 74 71 73 77 81 81 82 70 52 44 33 24 25 29 33 46 55 59 64 63 60 58 58
68 68 68 67 66 64 64 64 64 64 63 65 65 67 69 73 77 79 80 78 76 77 76 71 73 76 79 80 81 67 50 43 31 24 25 22 36 47 54 58 64 62 61 59 60
73 73 72 70 69 68 67 67 67 66 67 68 69 71 74 77 79 82 81 81 79 79 75 73 73 75 78 82 74 65 49 42 31 22 23 21 39 45 54 58 63 65 66 63 62
77 76 75 73 73 72 71 71 72 72 71 72 73 76 77 79 80 82 83 83 81 79 75 74 74 77 79 77 67 56 46 39 29 23 18 29 40 45 50 56 63 66 66 65 66
81 79 78 77 76 75 75 76 76 75 76 77 78 78 79 81 82 83 82 85 83 78 75 74 75 78 80 74 62 51 43 33 28 22 19 25 35 38 48 51 58 63 63 65 63
84 83 82 81 81 81 80 80 80 80 81 82 83 81 82 83 84 85 84 83 81 77 75 77 77 80 74 68 56 44 38 29 25 21 18 27 25 36 41 51 54 60 64 63 59
90 89 87 86 87 86 85 85 85 85 85 84 84 85 84 85 86 86 83 82 79 78 79 79 79 76 65 60 48 40 33 25 20 18 21 23 26 33 39 50 56 58 59 60 63
Wind_Direction
270 278 283 290 292 292 290 291 294 295 295 296 298 299 301 301 302 303 303 303 302 301 301 300 300 301 302 302 302 300 302 305 306 311 316 322 326 329 338 345 346 352 4 10 13
279 284 285 286 287 286 287 290 291 293 295 297 299 299 300 301 301 301 299 296 299 299 297 294 294 295 293 293 293 292 291 293 296 299 304 308 313 318 324 331 335 342 348 1 11
276 278 280 282 283 283 285 288 290 293 294 294 294 296 298 300 302 299 298 297 297 296 295 294 293 293 292 291 289 284 281 283 286 290 291 295 298 302 311 317 320 329 338 353 360
272 277 279 280 281 282 283 284 287 290 293 294 294 294 296 299 298 297 299 298 298 298 296 294 294 293 291 288 286 282 282 278 279 281 281 283 286 291 297 298 305 315 323 337 348
272 278 279 278 281 282 284 285 288 290 291 293 294 295 298 299 298 300 304 305 305 305 305 304 304 301 297 294 291 283 282 277 273 272 276 277 278 280 285 286 293 301 309 321 339
272 273 276 278 280 283 286 289 293 293 294 298 298 300 306 305 309 308 307 307 307 307 306 307 307 305 299 294 291 286 280 279 273 270 269 269 270 273 274 279 283 289 297 305 320
269 273 277 279 284 288 290 291 292 294 299 300 304 308 309 305 306 305 306 307 306 306 306 308 308 303 298 293 290 287 285 276 273 267 267 265 264 264 265 269 275 281 285 292 301
273 279 281 283 286 290 293 295 295 295 295 301 304 306 306 308 308 311 312 313 312 312 311 311 312 308 299 297 295 292 288 280 274 274 271 271 265 264 264 263 263 266 271 279 286
282 285 286 287 292 295 293 295 298 300 303 305 307 312 312 313 314 318 319 318 316 314 314 314 312 309 303 300 301 300 297 293 289 285 277 267 261 259 257 257 255 257 258 264 271
286 286 286 288 286 287 291 293 294 297 304 308 311 315 318 321 322 324 322 320 317 315 317 314 311 305 302 302 303 302 300 298 291 286 280 274 258 256 256 249 249 248 250 253 257
286 282 279 275 281 284 286 283 284 288 295 302 308 313 318 322 324 324 323 323 319 317 316 313 309 305 305 301 300 300 298 294 293 287 281 271 263 253 253 251 245 245 245 244 246
274 274 272 271 273 270 269 274 281 291 301 301 304 309 315 317 323 323 325 323 320 318 318 316 309 308 304 303 302 302 298 297 293 286 278 271 263 254 244 250 244 242 243 242 241
261 257 262 266 272 277 282 283 286 291 296 300 304 308 310 312 318 320 322 323 321 319 317 314 310 308 307 305 303 302 299 296 294 287 280 267 256 252 241 242 244 239 241 241 239
254 256 263 270 278 283 287 290 291 293 295 298 302 305 308 310 315 318 320 323 322 319 316 312 310 310 308 306 304 302 299 299 294 285 279 267 249 247 244 235 238 239 235 239 238
258 261 267 271 277 283 286 288 291 293 294 295 298 301 305 308 310 314 317 321 320 317 315 312 310 312 311 308 307 304 305 300 292 285 276 266 247 237 235 235 230 233 233 233 235
261 264 269 274 277 280 284 286 290 292 295 295 297 300 303 304 308 313 315 318 317 315 314 312 311 312 309 306 306 307 306 299 290 282 274 262 248 230 231 229 227 228 231 231 231
266 269 272 275 278 282 285 287 289 292 292 295 298 299 302 304 306 310 313 316 315 315 314 313 313 313 311 310 310 312 310 303 292 280 269 257 241 225 224 225 227 227 230 231 232
268 272 275 277 279 280 283 285 288 289 292 294 296 298 301 304 308 311 313 315 314 315 314 312 312 312 313 312 314 317 315 309 295 278 262 251 236 224 217 221 223 225 225 228 232
269 272 274 277 280 282 283 285 286 287 290 293 297 298 300 303 308 310 312 314 314 315 315 313 313 313 315 316 319 322 320 314 302 276 253 240 232 216 214 218 217 220 221 223 225
269 273 276 278 280 281 281 283 285 287 290 294 296 298 301 303 306 309 311 313 313 315 315 314 314 314 315 319 322 324 321 318 308 278 248 238 225 217 217 215 215 213 215 218 220
270 272 275 277 279 281 282 283 285 288 291 293 296 298 300 302 305 306 308 311 312 314 314 314 314 315 316 320 322 324 320 317 309 275 250 243 223 217 216 212 212 212 213 215 218
271 273 276 278 280 281 282 284 286 289 291 293 295 297 298 301 303 305 307 310 311 313 314 313 313 315 317 318 320 322 317 314 304 269 249 230 218 209 213 211 209 210 214 214 218
270 273 275 277 278 280 282 284 286 288 290 291 294 296 298 300 302 304 306 308 310 312 313 312 312 315 317 316 319 319 314 309 300 263 243 226 219 211 210 209 210 208 214 218 221
270 272 274 276 278 280 282 284 285 287 289 290 292 295 297 299 301 303 306 307 309 311 311 311 312 314 315 314 313 309 307 304 285 260 242 225 220 212 208 208 207 209 214 217 221
269 271 273 275 277 279 281 283 284 286 288 289 291 293 295 297 300 302 304 306 308 309 308 311 312 315 313 310 309 309 304 294 279 259 241 230 226 217 208 209 207 207 208 214 220
269 271 272 274 276 278 279 280 283 285 287 289 291 293 295 297 299 301 303 305 305 306 309 312 315 315 309 305 307 305 297 284 264 233 224 229 234 221 211 211 210 206 208 211 216
268 270 271 273 274 276 278 280 282 283 285 287 289 292 294 297 298 300 303 303 305 308 310 311 314 313 304 303 305 300 292 264 245 214 214 221 221 219 213 215 213 210 211 212 214
Height
11020 11021 11020 11020 11019 11018 11017 11016 11015 11014 11013 11012 11009 11007 11005 11005 11004 11003 11001 10998 10995 10993 10992 10989 10988 10987 10984 10984 10984 10983 10980 10979 10976 10978 10979 10979 10977 10975 10973 10971 10970 10968 10966 10963 10960
11016 11016 11016 11015 11014 11012 11010 11010 11009 11008 11007 11006 11002 11000 10999 10997 10997 10995 10994 10991 10988 10986 10984 10981 10980 10979 10978 10975 10977 10977 10973 10972 10970 10971 10973 10975 10973 10972 10970 10969 10967 10966 10965 10963 10960
11011 11011 11011 11010 11008 11006 11004 11003 11003 11001 11000 10998 10997 10995 10992 10990 10987 10984 10983 10982 10980 10978 10975 10972 10970 10969 10969 10969 10967 10967 10967 10963 10963 10963 10966 10967 10968 10968 10969 10966 10964 10963 10963 10962 10960
11005 11005 11004 11004 11002 10999 10998 10998 10997 10995 10994 10992 10990 10988 10986 10984 10979 10974 10971 10971 10970 10967 10964 10962 10962 10959 10956 10957 10958 10955 10955 10957 10957 10953 10956 10958 10961 10961 10965 10963 10961 10960 10960 10960 10959
10999 10999 10998 10997 10995 10993 10993 10993 10991 10989 10986 10983 10981 10978 10977 10974 10971 10966 10965 10962 10961 10959 10956 10954 10953 10951 10947 10944 10946 10944 10942 10946 10946 10948 10945 10949 10951 10954 10958 10957 10957 10956 10956 10957 10957
10993 10992 10991 10991 10989 10988 10986 10985 10982 10980 10977 10974 10971 10970 10970 10965 10965 10962 10959 10957 10954 10951 10949 10949 10947 10943 10938 10936 10934 10933 10931 10931 10934 10937 10937 10939 10942 10945 10949 10951 10952 10952 10952 10952 10953
10987 10986 10985 10984 10983 10981 10978 10976 10975 10971 10969 10966 10963 10963 10963 10960 10958 10957 10954 10951 10948 10945 10943 10941 10940 10936 10931 10926 10924 10923 10922 10920 10920 10922 10926 10930 10934 10934 10941 10943 10945 10947 10947 10947 10948
10981 10979 10977 10977 10976 10973 10970 10968 10966 10966 10963 10961 10958 10956 10956 10954 10950 10949 10948 10945 10941 10937 10934 10931 10930 10926 10922 10918 10916 10914 10913 10910 10908 10913 10916 10920 10926 10922 10933 10935 10937 10939 10941 10942 10942
10973 10970 10968 10967 10968 10965 10963 10961 10960 10959 10958 10956 10954 10951 10949 10947 10944 10941 10938 10935 10932 10928 10926 10923 10920 10916 10912 10910 10909 10906 10904 10902 10900 10904 10905 10910 10913 10913 10920 10924 10927 10930 10932 10935 10936
10965 10961 10960 10960 10960 10959 10958 10956 10956 10955 10954 10952 10949 10946 10942 10938 10936 10933 10929 10926 10922 10919 10916 10912 10910 10906 10903 10900 10899 10896 10894 10890 10892 10889 10895 10895 10901 10903 10903 10911 10915 10919 10922 10925 10929
10956 10952 10952 10952 10953 10953 10953 10952 10953 10951 10949 10947 10943 10940 10937 10933 10929 10925 10920 10917 10912 10908 10905 10902 10898 10894 10892 10890 10888 10884 10882 10880 10880 10881 10880 10884 10888 10893 10893 10897 10903 10906 10911 10914 10918
10949 10947 10947 10946 10947 10947 10947 10947 10946 10945 10942 10939 10938 10934 10931 10928 10923 10917 10912 10907 10903 10899 10895 10891 10884 10881 10879 10875 10874 10870 10864 10863 10862 10865 10861 10866 10875 10878 10883 10880 10889 10895 10897 10903 10909
10944 10943 10942 10942 10941 10941 10940 10940 10939 10938 10937 10933 10930 10928 10924 10921 10918 10912 10907 10902 10896 10890 10885 10879 10874 10872 10866 10862 10859 10854 10846 10841 10841 10837 10840 10847 10858 10862 10866 10870 10875 10883 10884 10889 10896
10938 10938 10938 10937 10936 10935 10934 10933 10931 10930 10929 10926 10923 10922 10917 10912 10908 10904 10898 10893 10888 10881 10877 10871 10863 10860 10856 10850 10844 10839 10825 10822 10815 10811 10815 10817 10840 10841 10852 10856 10862 10869 10874 10875 10882
10931 10932 10931 10931 10930 10928 10927 10925 10923 10920 10920 10917 10915 10912 10910 10904 10899 10895 10889 10884 10879 10871 10865 10858 10853 10847 10841 10834 10828 10822 10809 10798 10791 10786 10790 10797 10813 10824 10831 10839 10847 10853 10858 10862 10867
10923 10924 10924 10923 10922 10920 10918 10917 10914 10912 10908 10907 10905 10903 10900 10897 10892 10885 10879 10875 10869 10861 10854 10847 10841 10837 10831 10823 10815 10805 10794 10778 10769 10766 10766 10775 10787 10803 10808 10822 10832 10837 10843 10848 10853
10913 10914 10914 10913 10913 10911 10909 10907 10905 10900 10898 10897 10894 10891 10889 10885 10883 10878 10872 10866 10857 10849 10841 10832 10824 10820 10814 10805 10797 10785 10771 10759 10749 10745 10748 10754 10765 10784 10791 10805 10813 10823 10828 10837 10844
10903 10903 10902 10902 10903 10902 10899 10898 10895 10891 10887 10885 10882 10880 10877 10872 10869 10865 10860 10855 10848 10837 10826 10816 10806 10802 10795 10787 10778 10765 10752 10742 10732 10729 10732 10734 10752 10767 10771 10781 10796 10805 10818 10827 10833
10892 10891 10890 10890 10890 10889 10888 10886 10883 10878 10876 10875 10871 10866 10864 10859 10854 10850 10847 10842 10836 10827 10816 10805 10791 10780 10773 10765 10757 10746 10735 10727 10720 10717 10717 10723 10737 10743 10755 10764 10778 10795 10805 10813 10822
10880 10878 10878 10877 10877 10876 10875 10873 10871 10866 10864 10861 10858 10854 10850 10846 10842 10837 10832 10829 10822 10815 10804 10794 10777 10767 10752 10748 10739 10730 10720 10714 10709 10707 10710 10712 10723 10733 10740 10751 10766 10777 10789 10800 10809
10866 10865 10864 10864 10863 10862 10861 10860 10858 10855 10852 10849 10845 10841 10836 10831 10828 10824 10818 10814 10807 10799 10793 10783 10769 10752 10741 10732 10723 10718 10711 10703 10699 10697 10697 10703 10714 10721 10727 10740 10751 10762 10776 10787 10795
10851 10852 10849 10849 10848 10847 10847 10845 10844 10841 10839 10836 10832 10828 10824 10818 10811 10807 10802 10798 10795 10785 10776 10770 10757 10744 10730 10722 10711 10706 10698 10691 10689 10687 10687 10694 10698 10703 10714 10725 10738 10752 10764 10776 10784
10834 10834 10834 10834 10833 10832 10831 10829 10828 10828 10825 10822 10818 10814 10809 10805 10799 10790 10785 10782 10778 10771 10763 10754 10744 10733 10721 10706 10702 10691 10688 10683 10679 10678 10680 10688 10685 10696 10699 10709 10724 10737 10749 10763 10772
10817 10818 10816 10818 10816 10816 10816 10814 10812 10811 10811 10807 10804 10800 10796 10790 10785 10778 10769 10763 10761 10756 10748 10739 10729 10719 10707 10699 10694 10690 10680 10673 10670 10669 10673 10674 10674 10683 10694 10700 10708 10722 10739 10750 10757
10797 10799 10799 10801 10799 10799 10800 10798 10795 10794 10792 10790 10788 10786 10783 10777 10771 10765 10760 10747 10743 10738 10732 10726 10716 10705 10690 10682 10679 10674 10668 10664 10660 10661 10663 10667 10671 10680 10687 10695 10703 10714 10727 10739 10749
10778 10780 10781 10781 10782 10781 10782 10780 10779 10776 10775 10773 10769 10768 10765 10761 10755 10748 10744 10736 10726 10723 10716 10706 10701 10690 10674 10665 10666 10662 10657 10653 10651 10651 10655 10659 10667 10672 10683 10686 10696 10704 10713 10726 10735
10757 10759 10762 10763 10762 10763 10763 10762 10760 10758 10757 10755 10752 10749 10748 10743 10736 10731 10726 10717 10710 10704 10698 10691 10687 10674 10660 10653 10653 10650 10647 10643 10642 10644 10648 10651 10657 10661 10673 10682 10688 10697 10708 10716 10724